Content
SEND FEEDBACK

Daily
Averages
Monthly
Summary
United States of America

ANGLETON, TEXAS


Home > North America > United States > Texas
Elevation: 12 feet     Latitude: 29 02N     Longitude: 095 27W

WEATHER
 
SELECT A DAY
Number of Records: 187,971;   Date Range: 7/1/96 - 7/20/14
 
SHARE

PRINT THIS DATA

[ ← Previous Day ]
WEATHER ALMANAC - JANUARY 31, 2013
[ Next Day → ]
[ °C ]   °F
Weather ElementAverageHighLow
Temperature49.4 °F66 °F (1:53 pm)32 °F (5:53 am)
Dewpoint31 °F42.1 °F (8:53 am)21 °F (11:53 am)
Humidity57.5 %96 % (7:53 am)20 % (11:53 am)
Barometer30.28 in30.32 in (9:53 am)30.22 in (3:53 am)
Wind Speed5.1 mph13.8 mph (2:53 pm)
Wind Gust19.6 mph (1:53 pm)
Weather ElementAverage
Visibility9.9 mi
Wind DirectionESE (109 °)

Weather ElementTotal
Precipitation---
Heating Degree Days16 (Base 65)
Averaged from 21 records on January 31, 2013
WEATHER CONDITIONS BREAKOUT
WIND DIRECTION BREAKOUT
WEATHER BY HOUR - JANUARY 31, 2013
[ °C ]   °F
Local TimeTemperatureDewpointHumidityBarometerVisibilityWind DirectionWind SpeedGust SpeedPrecipitationEventsConditions
1:53 AM35.1 °F32.0 °F89 %30.25 in8.0 miSouth (180°)3.5 mphClear
2:53 AM34.0 °F30.9 °F89 %30.25 in10.0 miSouth (180°)3.5 mphClear
3:53 AM34.0 °F30.9 °F89 %30.22 in10.0 miCalmClear
5:53 AM32.0 °F30.0 °F92 %30.23 in10.0 miCalmClear
6:53 AM32.0 °F28.9 °F88 %30.25 in10.0 miCalmClear
7:53 AM35.1 °F34.0 °F96 %30.29 in10.0 miCalmClear
8:53 AM48.9 °F42.1 °F77 %30.31 in10.0 miCalmClear
9:53 AM59.0 °F33.1 °F38 %30.32 in10.0 miSouth (190°)9.2 mphClear
10:53 AM62.1 °F25.0 °F24 %30.32 in10.0 miSW (220°)8.1 mphClear
11:53 AM63.0 °F21.0 °F20 %30.32 in10.0 miVariable4.6 mphClear
12:53 PM63.0 °F21.9 °F21 %30.29 in10.0 miVariable3.5 mphClear
1:53 PM66.0 °F26.1 °F22 %30.27 in10.0 miSW (230°)9.2 mph19.6 mphClear
2:53 PM64.0 °F27.0 °F25 %30.25 in10.0 miSSW (200°)13.8 mphClear
3:53 PM63.0 °F24.1 °F23 %30.25 in10.0 miSSW (200°)12.7 mph18.4 mphClear
4:53 PM61.0 °F30.9 °F32 %30.25 in10.0 miSouth (190°)13.8 mph18.4 mphClear
5:53 PM54.0 °F34.0 °F47 %30.26 in10.0 miSouth (190°)6.9 mphClear
6:53 PM48.9 °F35.1 °F59 %30.26 in10.0 miSSE (160°)6.9 mphClear
7:53 PM50.0 °F35.1 °F57 %30.28 in10.0 miSouth (180°)5.8 mphClear
8:53 PM46.9 °F36.0 °F66 %30.31 in10.0 miCalmClear
9:53 PM44.1 °F35.1 °F71 %30.31 in10.0 miSouth (170°)4.6 mphClear
11:53 PM42.1 °F37.0 °F82 %30.32 in10.0 miCalmClear
Hourly data recorded from KLBX, located miles away from Angleton, Texas







STORIES FROM OUR PARTNERS